Montreal Mirabel, Quebec

12:23 AM EST on November 19, 2017 (GMT -0500)
Montreal Mirabel

Weather History for CYMX - September, 2014

Change the Weather History Date:

Monday, September 15, 2014

  Actual Average Record
Temperature  
Mean Temperature 50 °F -  
Max Temperature 62 °F 67 °F 78 °F (2003)
Min Temperature 39 °F 49 °F 37 °F (2001)
Degree Days  
Heating Degree Days 14    
Moisture  
Dew Point 44 °F    
Average Humidity 79    
Maximum Humidity 100    
Minimum Humidity 52    
Precipitation  
Precipitation 0.00 in - - ()
Sea Level Pressure  
Sea Level Pressure 30.16 in    
Wind  
Wind Speed 4 mph ()    
Max Wind Speed 9 mph    
Max Gust Speed -    
Visibility 15.0 miles    
Events Rain    
Averages and records for this station are not official NWS values.
T = Trace of Precipitation, MM = Missing Value Source: Averaged Metar Reports

Daily Weather History Graph

Daily Weather History Graph

Search for Another Location

Airport or City:

Trip Planner

Search our weather history database for the weather conditions in past years. The results will help you decide how hot, cold, wet, or windy it might be!

Date:

Astronomy

Sep. 15, 2014 Rise Set
Actual Time 6:34 AM EDT 7:07 PM EDT
Civil Twilight 6:04 AM EDT 7:37 PM EDT
Nautical Twilight 5:29 AM EDT 8:12 PM EDT
Astronomical Twilight 4:52 AM EDT 8:49 PM EDT
Moon 11:30 PM EDT (9/15) 1:50 PM EDT (9/15)
Length of Visible Light 13h 32m
Length of Day
12h 32m
Waning Gibbous, 54% of the Moon is Illuminated
Sep 15
Waning Gibbous
Sep 15
Last Quarter
Sep 24
New
Oct 1
First Quarter
Oct 8
Full

Hourly Weather History & Observations

Time (EDT) Temp. Windchill Dew Point Humidity Pressure Visibility Wind Dir Wind Speed Gust Speed Precip Events Conditions
12:00 AM 41.0 °F 39.0 °F 39.2 °F 93% 30.25 in 25.0 mi West 3.5 mph - N/A   Partly Cloudy
1:00 AM 39.2 °F 37.0 °F 37.4 °F 93% 30.24 in 25.0 mi South 3.5 mph - N/A   Mostly Cloudy
2:00 AM 42.8 °F 41.1 °F 39.2 °F 87% 30.24 in 25.0 mi West 3.5 mph - N/A   Mostly Cloudy
3:00 AM 41.0 °F - 39.2 °F 93% 30.23 in 25.0 mi WSW 2.3 mph - N/A   Mostly Cloudy
4:00 AM 41.0 °F - 39.2 °F 93% 30.22 in 25.0 mi Variable 2.3 mph - N/A   Mostly Cloudy
5:00 AM 41.0 °F 39.0 °F 41.0 °F 100% 30.23 in 25.0 mi WNW 3.5 mph - N/A   Overcast
6:00 AM 42.8 °F - 41.0 °F 93% 30.23 in 45.0 mi Calm Calm - N/A   Overcast
7:00 AM 42.8 °F - 41.0 °F 93% 30.24 in 45.0 mi Calm Calm - N/A   Overcast
8:00 AM 44.6 °F - 42.8 °F 93% 30.24 in 45.0 mi Calm Calm - N/A   Mostly Cloudy
9:00 AM 46.4 °F 43.5 °F 44.6 °F 93% 30.22 in 25.0 mi SSW 5.8 mph - N/A   Scattered Clouds
10:00 AM 51.8 °F - 46.4 °F 82% 30.20 in 45.0 mi WSW 5.8 mph - N/A   Mostly Cloudy
11:00 AM 55.4 °F - 46.4 °F 72% 30.19 in 45.0 mi SSW 6.9 mph - N/A   Mostly Cloudy
12:00 PM 57.2 °F - 46.4 °F 67% 30.17 in 45.0 mi SSW 6.9 mph - N/A   Mostly Cloudy
1:00 PM 59.0 °F - 46.4 °F 63% 30.15 in 45.0 mi SW 6.9 mph - N/A   Mostly Cloudy
2:00 PM 59.0 °F - 46.4 °F 63% 30.13 in 45.0 mi SSW 9.2 mph - N/A   Mostly Cloudy
3:00 PM 60.8 °F - 46.4 °F 59% 30.11 in 45.0 mi SW 4.6 mph - N/A   Mostly Cloudy
4:00 PM 62.6 °F - 44.6 °F 52% 30.08 in 45.0 mi SSW 9.2 mph - N/A   Mostly Cloudy
5:00 PM 60.8 °F - 44.6 °F 55% 30.07 in 45.0 mi SSW 6.9 mph - N/A   Overcast
6:00 PM 59.0 °F - 46.4 °F 63% 30.07 in 45.0 mi SSW 4.6 mph - N/A   Overcast
7:00 PM 59.0 °F - 46.4 °F 63% 30.06 in 25.0 mi SW 5.8 mph - N/A   Overcast
8:00 PM 57.2 °F - 48.2 °F 72% 30.05 in 15.0 mi SSW 6.9 mph - N/A Rain Light Rain
9:00 PM 55.4 °F - 50.0 °F 82% 30.05 in 25.0 mi SSW 8.1 mph - N/A Rain Light Rain
10:00 PM 53.6 °F - 50.0 °F 88% 30.04 in 25.0 mi Variable 2.3 mph - N/A Rain Light Rain
11:00 PM 53.6 °F - 50.0 °F 88% 30.04 in 25.0 mi WSW 3.5 mph - N/A Rain Light Rain